Theta_e
307 303 302 296 296 297 297 298 300 292 292 295 294 295 297 297 297 298 299 299 303 305 305 306 307 305 305 305 305 305 305 305 305 305 305 305 306 307
308 307 306 303 296 296 296 297 298 298 296 295 293 293 294 294 297 297 297 298 300 303 304 305 305 304 304 304 304 303 303 304 304 304 303 304 304 304
308 307 306 307 300 297 295 294 296 297 300 292 292 292 292 293 294 297 297 298 298 300 303 303 303 303 303 303 302 302 303 302 302 300 301 302 302 302
308 307 306 302 301 300 297 295 296 296 295 293 292 291 292 292 294 296 294 294 296 295 299 301 301 302 302 302 301 302 301 300 297 298 299 299 299 299
308 306 305 301 301 298 298 297 297 294 294 292 289 290 292 291 292 293 294 295 293 293 297 298 300 300 301 301 301 300 298 295 296 297 296 296 296 297
308 306 305 301 302 299 298 297 295 294 292 291 290 289 290 289 292 292 291 291 292 291 292 294 295 296 298 298 298 295 293 294 295 295 295 294 294 295
306 305 306 301 301 300 300 296 296 294 292 291 289 290 289 288 290 291 292 292 292 292 292 292 293 293 293 292 290 290 293 293 293 293 293 293 293 293
304 304 304 298 300 300 300 299 298 295 291 290 290 289 290 290 291 291 291 293 294 290 291 291 290 291 290 290 289 291 291 292 292 291 292 292 292 292
304 302 301 299 299 299 300 299 299 300 298 295 292 292 292 293 293 291 291 292 292 286 291 292 289 289 288 286 288 290 290 290 290 291 290 291 291 291
305 303 301 300 300 300 298 297 296 298 298 295 296 296 296 294 295 294 291 287 286 286 288 291 287 288 287 286 287 289 288 288 289 289 289 290 289 289
305 304 304 301 300 300 298 296 295 295 297 297 297 297 296 296 294 291 288 288 288 288 286 290 285 286 285 285 285 286 286 287 287 288 288 288 288 288
303 303 300 300 299 299 297 295 293 294 293 292 293 295 295 295 295 292 289 289 288 289 287 288 285 284 289 285 285 285 284 284 285 286 286 286 286 286
300 299 300 299 299 298 299 296 295 295 294 291 290 290 290 289 288 289 289 291 288 288 286 286 283 282 283 284 283 283 282 283 282 283 284 284 286 285
300 300 300 298 297 298 298 298 298 295 291 290 288 287 288 287 285 285 285 285 285 287 286 284 282 284 284 283 283 282 283 282 282 281 282 283 284 284
302 301 299 297 298 298 298 298 297 293 291 289 289 287 286 285 283 282 282 282 281 281 281 281 283 279 281 282 281 279 279 281 281 281 281 280 280 281
299 299 298 297 298 298 297 296 293 292 291 290 289 284 283 283 282 282 281 281 280 279 280 281 280 280 279 278 278 278 278 278 279 280 280 280 281 282
298 296 294 294 293 294 294 294 292 291 290 288 285 284 283 283 281 282 281 281 282 279 279 279 278 277 277 276 277 276 277 278 279 279 278 278 280 282
294 292 292 293 292 293 293 291 291 292 290 288 286 285 283 283 281 281 281 282 281 280 279 277 276 276 277 275 277 278 278 277 278 278 277 276 278 281
293 292 292 292 292 292 292 291 290 291 290 289 287 285 284 283 282 281 281 281 280 279 276 274 274 277 278 279 277 278 277 277 276 276 277 277 276 278
294 292 291 291 291 291 291 291 290 289 288 288 286 285 285 283 281 280 281 281 279 275 272 272 275 275 278 279 277 277 277 275 275 275 275 277 278 280
293 292 292 291 291 291 291 291 289 288 288 287 286 285 284 283 282 282 282 280 277 275 274 274 274 274 269 271 276 276 276 276 277 276 276 275 274 275
293 292 291 291 291 291 291 290 288 288 287 286 286 285 284 284 282 281 281 279 276 276 274 271 268 271 273 274 272 270 272 274 276 277 278 278 276 273
292 291 291 291 291 291 290 289 288 288 287 287 286 285 285 283 283 282 280 278 275 273 272 270 270 271 267 270 271 270 269 270 271 272 274 278 278 279
Wind_Speed
15 12 8 3 3 2 3 3 4 5 8 6 5 9 8 8 10 10 9 10 12 10 9 8 6 6 8 8 9 10 11 12 14 15 18 19 21 21
10 13 12 7 4 4 3 3 2 3 3 4 5 3 8 7 9 10 9 8 12 10 11 9 6 9 9 8 9 11 11 12 14 16 17 19 21 21
17 18 17 13 8 6 3 2 2 2 1 2 1 2 3 8 7 7 5 6 5 8 10 11 8 11 10 8 9 10 11 12 14 15 17 19 20 21
18 16 17 11 14 12 9 7 4 4 3 3 2 2 1 4 7 8 6 5 6 6 11 11 9 11 9 8 8 9 10 10 12 14 15 18 20 22
17 18 18 17 15 10 11 9 6 3 3 4 3 1 1 3 4 4 6 6 4 4 12 8 10 10 9 7 7 9 7 9 11 13 15 18 20 23
16 15 15 17 17 15 12 12 9 7 4 3 3 3 2 2 2 5 5 3 4 4 5 6 6 6 8 4 4 5 6 8 9 12 15 18 21 22
15 15 15 17 21 18 12 11 12 7 5 4 3 2 3 4 4 4 2 2 5 2 2 2 2 0 2 1 3 5 6 7 9 12 16 20 21 22
16 16 14 16 15 17 15 15 16 13 8 6 4 4 4 4 4 4 4 3 2 2 3 1 1 1 1 1 3 5 5 6 11 14 18 19 20 24
17 15 12 10 15 13 13 13 14 16 15 11 8 6 5 8 8 6 4 3 3 2 2 2 0 1 2 1 5 3 4 9 13 17 16 18 22 23
17 17 16 15 16 15 13 12 13 12 12 8 9 7 5 9 7 4 5 6 3 2 1 2 1 1 1 1 1 1 5 11 15 15 15 20 22 23
16 16 17 16 21 24 15 15 13 10 6 8 10 10 11 14 12 9 4 4 1 1 0 2 2 0 0 0 1 3 6 13 14 15 19 19 21 24
13 14 21 18 24 26 17 17 14 13 11 8 6 8 11 11 11 2 7 4 3 1 3 3 1 2 1 1 1 2 4 9 14 14 19 21 20 10
12 12 12 21 26 29 22 15 16 13 14 9 8 6 5 6 4 4 5 4 4 2 4 3 2 1 1 3 1 1 4 6 6 11 17 18 23 15
15 12 14 26 27 29 22 19 15 16 10 10 8 5 7 6 5 7 7 6 5 5 7 4 4 2 2 1 2 4 5 4 5 8 10 15 19 21
12 15 21 28 28 25 27 19 22 11 10 9 10 6 4 8 9 9 9 10 12 8 5 5 3 3 2 1 2 3 5 4 6 9 10 10 10 10
14 13 17 21 21 17 16 14 9 10 12 10 9 7 9 7 8 5 5 5 4 5 9 8 5 3 2 1 1 2 2 5 6 9 11 9 10 7
14 10 9 10 11 9 11 11 10 9 9 9 10 10 8 9 6 5 6 3 3 6 4 2 5 4 3 3 2 2 3 4 5 9 8 10 7 8
13 11 10 12 12 13 13 12 11 14 11 10 10 11 11 10 9 5 5 4 7 6 5 3 2 2 1 1 4 1 1 3 6 7 5 7 7 9
12 12 13 13 12 12 12 13 13 12 13 11 10 12 11 9 13 9 7 6 8 6 3 2 2 2 2 1 1 6 2 3 7 6 5 4 7 11
13 13 12 12 11 12 12 11 11 11 11 11 11 12 12 13 11 10 9 8 10 4 4 2 2 2 3 3 3 0 4 3 4 6 6 6 9 14
11 12 11 10 11 12 12 11 12 12 13 12 11 12 13 13 11 10 10 15 14 5 7 5 3 4 3 1 1 1 3 6 6 5 6 9 8 5
11 12 12 12 12 12 12 12 11 12 12 12 12 12 12 12 12 13 12 12 8 7 5 6 3 2 1 2 1 3 4 6 8 10 10 9 5 7
11 11 11 11 13 12 12 12 13 13 13 13 12 12 13 12 11 11 12 11 11 10 8 6 4 1 3 2 2 1 3 3 4 6 4 8 11 9
Wind_Direction
178 166 170 137 141 166 138 145 142 162 222 209 189 206 205 199 204 204 208 214 227 232 243 253 274 283 278 283 293 300 308 319 320 320 323 324 326 328
190 180 185 181 160 160 172 147 174 155 184 193 200 136 202 205 200 202 205 200 224 229 238 234 241 257 262 274 282 295 308 315 318 321 324 323 325 332
191 186 189 180 186 186 155 126 161 117 184 102 66 130 158 206 195 204 194 207 221 227 240 241 239 253 259 269 284 297 309 314 321 323 323 324 328 331
186 186 189 175 187 188 181 186 163 164 137 127 164 151 205 195 197 188 191 215 218 209 243 243 245 255 265 270 285 297 300 321 319 318 326 324 328 330
188 187 184 180 188 187 187 180 155 150 136 127 134 94 154 171 164 183 196 211 226 229 246 248 249 251 261 269 293 297 324 317 321 327 327 325 330 325
182 186 182 187 184 185 187 185 155 149 139 118 117 144 162 68 176 172 188 209 224 225 226 257 254 269 275 289 294 318 315 323 327 323 326 326 327 320
180 188 189 189 190 190 180 176 162 154 137 145 145 155 146 174 191 171 163 125 223 226 105 222 217 307 300 356 335 316 322 331 324 327 329 328 324 319
183 188 188 178 183 177 182 174 178 167 163 143 157 185 171 173 155 148 139 175 206 231 175 109 1 140 311 14 321 329 321 325 330 338 335 326 322 321
180 180 178 179 173 179 175 173 191 187 179 163 163 182 155 181 157 161 180 145 158 182 150 124 232 208 95 67 331 324 339 334 338 343 331 322 325 324
182 179 177 177 183 174 176 185 202 192 189 181 176 168 156 151 161 149 133 109 93 80 66 131 236 101 49 41 9 287 340 345 345 334 325 329 329 323
184 182 185 180 184 180 174 181 191 195 170 150 130 138 145 148 143 126 135 136 110 115 110 146 58 0 39 151 168 339 350 350 338 330 331 331 329 324
181 184 186 180 176 176 178 179 178 190 169 139 115 117 130 146 156 172 149 127 123 122 194 123 146 15 24 80 248 316 339 343 329 323 332 330 332 328
176 180 182 178 173 180 182 181 187 164 164 141 129 124 119 128 107 85 82 118 129 111 176 111 111 148 75 311 333 320 337 334 325 325 332 334 330 333
177 181 179 180 175 179 180 185 144 143 142 139 138 149 150 145 115 91 73 74 51 99 136 107 113 195 109 0 300 350 333 317 328 331 333 332 331 332
171 178 172 180 177 182 188 167 149 150 152 155 172 162 147 135 119 93 85 89 75 74 81 72 129 126 90 142 306 3 332 315 329 331 333 329 323 327
160 167 175 175 175 175 182 161 158 163 165 170 166 131 126 143 129 120 128 138 106 94 56 67 77 82 123 103 76 327 294 309 329 336 326 316 323 326
145 139 153 164 167 164 171 167 160 156 157 152 154 148 149 144 133 142 131 155 139 125 127 97 68 63 56 152 162 200 297 293 332 338 332 324 327 337
139 155 168 173 171 176 173 163 168 171 166 162 154 154 154 156 144 141 129 162 127 134 133 142 141 122 139 51 255 269 286 298 327 331 323 315 310 333
151 172 177 178 175 175 170 170 171 176 165 164 162 159 153 148 145 146 151 147 112 123 107 121 134 163 133 156 306 227 321 311 328 313 313 305 297 304
163 173 182 179 171 167 166 168 168 161 167 165 160 156 156 152 148 155 166 141 127 123 136 133 131 173 159 161 171 196 272 280 314 313 315 326 296 289
172 173 171 178 166 166 165 168 171 167 164 159 159 158 157 153 153 155 149 141 137 140 141 141 115 94 96 150 162 41 312 275 292 291 307 310 314 325
180 175 168 162 165 167 165 163 162 166 163 161 162 157 155 153 154 151 149 148 144 138 111 113 127 141 75 60 91 348 306 314 339 333 297 278 316 325
176 175 160 170 166 167 164 164 164 167 167 160 160 154 154 150 151 144 139 136 130 131 139 130 133 104 80 61 85 357 276 306 353 329 301 311 311 315